Regional Weather Roundup
Issued by NWS

Home | Current Version | Previous Version | Text Only | Print | Product List | Glossary Off
Versions: 1 2 3 4 5 6 7 8 9 10 11 12 13 14 15 16 17 18 19 20 21 22 23 24 25 26 27 28 29 30 31 32 33 34 35 36 37 38 39 40 41 42 43 44 45 46 47 48 49 50

000
ASUS45 KTFX 052010
RWRMT
MONTANA REGIONAL WEATHER ROUNDUP
NATIONAL WEATHER SERVICE GREAT FALLS MT
200 PM MDT THU MAY 05 2016

NOTE: "FAIR" INDICATES FEW OR NO CLOUDS BELOW 12000 FEET WITH NO
SIGNIFICANT WEATHER AND/OR OBSTRUCTIONS TO VISIBILITY.

MTZ001>007-043-052100-
WEST OF THE DIVIDE

CITY           SKY/WX    TMP DP  RH WIND       PRES   REMARKS
KALISPELL      MOSUNNY   74  45  35 NE6       29.89S
MISSOULA       CLOUDY    75  45  34 W7        29.87F
BUTTE          CLOUDY    73  31  21 E13G18    29.96F
MULLAN PASS    PTSUNNY   57  41  55 N6        30.00F
ANACONDA         N/A     72  36  26 N5        29.94F
DEER LODGE       N/A     72  37  28 NE3       29.94F
EUREKA           N/A     70  46  43 CALM      29.92S
HAMILTON         N/A     72  39  30 SW3       29.88F
LIBBY            N/A     72  45  37 NW8       29.90F
PLAINS           N/A     76  48  37 CALM      29.88F
$$

MTZ008-052>055-052100-
SOUTHWEST MONTANA

CITY           SKY/WX    TMP DP  RH WIND       PRES   REMARKS
BOZEMAN        CLOUDY    78  37  22 N8        29.92F
DILLON         CLOUDY    72  34  24 NE6       29.94F
ENNIS          SUNNY     75  32  20 S15G22    30.01F
THREE FORKS      N/A     78 -40   1 NE1       29.92F
TWIN BRIDGES     N/A     74  32  21 S5        29.94F
$$

MTZ009-010-012-014-046-048-049-054-052100-
EAST SLOPES AND CENTRAL MONTANA

CITY           SKY/WX    TMP DP  RH WIND       PRES   REMARKS
CUT BANK         N/A     70  44  39 N18       29.93R
GREAT FALLS    MOSUNNY   76  38  25 SW7       29.88F
MALMSTROM AFB  MOSUNNY   75  37  25 S2        29.88F
HELENA         CLOUDY    79  35  20 E12G18    29.89F
CHOTEAU          N/A     75  37  25 CALM      29.91S
CONRAD           N/A     78  47  33 N9        29.93F
$$

MTZ011-013-016-021-045-047-050-051-052100-
NORTH CENTRAL MONTANA

CITY           SKY/WX    TMP DP  RH WIND       PRES   REMARKS
HAVRE          CLOUDY    81  44  27 NW10      29.83F
LEWISTOWN      CLOUDY    78  35  21 CALM      29.91S
N BAR RANCH      N/A     79  32  18 NW10G20   29.94R
$$

MTZ017>020-022>027-061-062-052100-
NORTHEAST MONTANA

CITY           SKY/WX    TMP DP  RH WIND       PRES   REMARKS
GLASGOW        SUNNY     83  46  27 SW5       29.80S
JORDAN           N/A     83  44  25 NW9       29.83S
SIDNEY         CLOUDY    88  39  18 S12G17    29.80F
WOLF POINT     CLOUDY    85  47  26 SW12      29.78F
POPLAR           N/A     86  45  23 SW13G18   29.78F
SCOBEY           N/A     86  42  21 SW17      29.79S
$$

MTZ028>42-056>058-052100-
SOUTHCENTRAL AND SOUTHEAST MONTANA

CITY           SKY/WX    TMP DP  RH WIND       PRES   REMARKS
BAKER          CLOUDY    85  32  15 VRB7      29.87F
BILLINGS       MOSUNNY   83  33  16 W8        29.90F
LIVINGSTON     MOSUNNY   80  32  17 SW16      29.91F
MILES CITY     CLOUDY    84  43  23 S8        29.83F
EKALAKA          N/A     82  38  20 S3        29.90F
FORSYTH          N/A     82  39  21 W6        29.84F
LAUREL           N/A     81  33  17 SW5       29.90F
ROUNDUP          N/A     81  35  19 S7        29.81F
$$

REGIONAL REPORTS...DAKOTAS

CITY           SKY/WX    TMP DP  RH WIND       PRES   REMARKS
WILLISTON      SUNNY     89  38  16 SW10      29.79F
MINOT          SUNNY     93  37  14 VRB7      29.78S
DICKINSON      SUNNY     84  36  18 S8G16     29.84F
BEACH            N/A     86  32  14 W7G18     29.88S
CROSBY           N/A     90  34  13 SW12G23   29.78S
TIOGA            N/A     86  36  16 S10G23    29.84F
WATFORD CITY     N/A     88  37  16 SW10      29.81S
BISMARCK       SUNNY     86  47  25 S7        29.84F
GRAND FORKS    MOSUNNY   91  39  16 W15G28    29.76F
FARGO          SUNNY     90  37  15 SW21G29   29.81F
BUFFALO SD       N/A     84  38  19 MISG      29.83F
RAPID CITY     SUNNY     83  47  28 SE10G17   29.91F
$$

REGIONAL REPORTS...WYOMING/IDAHO/WASHINGTON

CITY           SKY/WX    TMP DP  RH WIND       PRES   REMARKS
GILLETTE       CLOUDY    77  48  35 VRB7      29.95F
SHERIDAN       CLOUDY    82  40  22 E7        29.92F
BUFFALO WY     CLOUDY    79  35  20 VRB3      30.00S
CODY           SUNNY     77  30  18 CALM      29.98F
YELLOWSTONE LA   N/A     59  28  30 E5        30.17F
IDAHO FALLS    CLOUDY    79  37  22 CALM      29.93F
SALMON         CLOUDY    72  37  28 CALM      29.86F
BOISE          PTSUNNY   72  47  40 W3        29.80F
SPOKANE        PTSUNNY   67  50  54 N7        29.93F
$$

REGIONAL REPORTS...ALBERTA

CITY           SKY/WX    TMP DP  RH WIND       PRES   REMARKS
EDMONTON       SUNNY     57  27  30 W7        30.02S
CALGARY        PTSUNNY   48  37  66 N17G24    30.07S
LETHBRIDGE     PTSUNNY   66  34  30 NW18G26   29.97R
MEDICINE HAT   CLOUDY    73  43  33 NW17G24   29.88S
WATERTON GATE    N/A     63  39  42 N7          N/A
CARDSTON         N/A     63  36  36 N12G18      N/A
MILK RIVER       N/A     70  43  37 N16G24      N/A
$$

REGIONAL REPORTS...SASKATCHEWAN

CITY           SKY/WX    TMP DP  RH WIND       PRES   REMARKS
SWIFT CURRENT  SUNNY     82  36  18 W21G31    29.80S
REGINA         PTSUNNY   88  36  15 W17       29.70S
SASKATOON      PTSUNNY   82  39  21 N12G20    29.69S
CYPRESS HILLS    N/A     68  39  34 NW12G18     N/A
VAL MARIE        N/A     82  28  14 NW6         N/A
ROCKGLEN         N/A     82  37  20 W10G18      N/A
ASSINIBOIA       N/A     50  45  81 NW6         N/A
$$



USA.gov is the U.S. government's official web portal to all federal, state and local government web resources and services.